WESTMAR Weather Reports


time (UTC)temp
C
wind
direction
speed
KPH
gust
KPH
rain 1hr
cm
rain 24hr
cm
rain mn
cm
humidity
%
barometer
mb
20260507101550 11 0 0.0 0.0 0.00 0.00 0.00 91 1018.0
20260507100055 11 0 0.0 0.0 0.00 0.00 0.00 90 1017.9
20260507094549 11 0 0.0 0.0 0.00 0.00 0.00 90 1017.8
20260507093050 12 0 0.0 0.0 0.00 0.00 0.00 90 1017.9
20260507091551 12 0 0.0 0.0 0.00 0.00 0.00 90 1017.9
20260507090057 12 0 0.0 0.0 0.00 0.00 0.00 90 1017.7
20260507084553 12 0 0.0 0.0 0.00 0.00 0.00 90 1017.6
20260507083046 12 0 0.0 0.0 0.00 0.00 0.00 90 1017.6
20260507081603 12 0 0.0 0.0 0.00 0.00 0.00 89 1017.6
20260507080052 12 0 0.0 0.0 0.00 0.00 0.00 89 1017.5
20260507074547 12 0 0.0 0.0 0.00 0.00 0.00 88 1017.5
20260507073050 12 0 0.0 0.0 0.00 0.00 0.00 88 1017.3
20260507071546 12 0 0.0 0.0 0.00 0.00 0.00 88 1017.3
20260507070054 12 0 0.0 0.0 0.00 0.00 0.00 87 1017.2
20260507064619 12 0 0.0 0.0 0.00 0.00 0.00 87 1017.1
20260507063052 12 0 0.0 0.0 0.00 0.00 0.00 87 1017.1
20260507061547 12 0 0.0 0.0 0.00 0.00 0.00 87 1017.0
20260507060110 12 0 0.0 0.0 0.00 0.00 0.00 87 1016.8
20260507054554 12 0 0.0 0.0 0.00 0.00 0.00 87 1016.7
20260507053105 12 0 0.0 0.0 0.00 0.00 0.00 87 1016.6
20260507051559 12 0 0.0 0.0 0.00 0.00 0.00 86 1016.9
20260507050052 12 0 0.0 0.0 0.00 0.00 0.00 85 1016.9
20260507044555 12 0 0.0 0.0 0.00 0.00 0.00 85 1017.1
20260507043055 13 0 0.0 0.0 0.00 0.00 0.00 83 1017.2
20260507041551 13 0 0.0 0.0 0.00 0.00 0.00 83 1017.1
20260507040052 13 0 0.0 0.0 0.00 0.00 0.00 82 1017.1
20260507034544 13 0 0.0 0.0 0.00 0.00 0.00 81 1016.8
20260507033047 13 0 0.0 0.0 0.00 0.00 0.00 81 1016.6
20260507031546 13 157 0.0 0.0 0.00 0.00 0.00 80 1016.6
20260507030046 14 0 0.0 3.2 0.00 0.00 0.00 79 1016.5
20260507024544 15 0 0.0 0.0 0.00 0.00 0.00 77 1016.5
20260507023047 15 0 0.0 4.8 0.00 0.00 0.00 76 1016.3
20260507021547 16 0 0.0 0.0 0.00 0.00 0.00 75 1016.1
20260507020100 16 0 0.0 0.0 0.00 0.00 0.00 75 1016.2
20260507014547 16 0 0.0 0.0 0.00 0.00 0.00 76 1016.2
20260507013046 16 0 0.0 0.0 0.00 0.00 0.00 75 1016.1
20260507011546 16 0 0.0 4.8 0.00 0.00 0.00 75 1016.2
20260507010058 16 0 0.0 0.0 0.00 0.00 0.00 75 1016.4
20260507004550 16 0 0.0 6.4 0.00 0.00 0.00 75 1016.7
20260507003046 16 0 0.0 0.0 0.00 0.00 0.00 75 1016.6
20260507001547 16 0 0.0 4.8 0.00 0.00 0.00 75 1016.5
20260507000045 16 0 0.0 0.0 0.00 0.00 0.00 75 1016.4
20260506234544 16 0 0.0 3.2 0.00 0.00 0.00 75 1016.3
20260506233047 16 0 0.0 4.8 0.00 0.00 0.00 75 1016.5
20260506231606 16 0 0.0 1.6 0.00 0.00 0.00 76 1016.5
20260506230104 16 174 0.0 3.2 0.00 0.00 0.00 76 1016.4
20260506224552 16 0 1.6 6.4 0.00 0.00 0.00 76 1016.6
20260506223055 16 0 1.6 8.0 0.00 0.00 0.00 76 1016.8
20260506221610 16 24 1.6 8.0 0.00 0.00 0.00 75 1017.0
20260506220108 16 0 0.0 6.4 0.00 0.00 0.00 76 1016.9
20260506214550 16 0 0.0 6.4 0.00 0.00 0.00 76 1016.7
20260506213104 16 0 0.0 0.0 0.00 0.00 0.00 77 1017.0
20260506211544 15 0 1.6 4.8 0.00 0.00 0.00 77 1017.0
20260506210057 15 194 0.0 3.2 0.00 0.00 0.00 78 1017.0
20260506204556 15 0 0.0 4.8 0.00 0.00 0.00 79 1017.1
20260506203047 15 0 0.0 4.8 0.00 0.00 0.00 79 1017.1
20260506201550 15 0 0.0 6.4 0.00 0.00 0.00 79 1017.0
20260506200052 15 0 0.0 4.8 0.00 0.00 0.00 78 1016.9
20260506194550 15 0 0.0 6.4 0.00 0.00 0.00 79 1016.9
20260506193045 15 0 0.0 9.7 0.00 0.00 0.00 78 1016.7
20260506191549 15 89 0.0 8.0 0.00 0.00 0.00 78 1016.7
20260506190046 16 147 1.6 8.0 0.00 0.00 0.00 76 1016.6
20260506184559 16 156 0.0 6.4 0.00 0.00 0.00 77 1016.6
20260506183048 16 183 0.0 4.8 0.00 0.00 0.00 75 1016.3
20260506181548 16 207 1.6 6.4 0.00 0.00 0.00 74 1016.4
20260506180058 16 0 0.0 1.6 0.00 0.00 0.00 76 1016.2
20260506174547 16 164 0.0 3.2 0.00 0.00 0.00 75 1016.1
20260506173047 16 0 0.0 0.0 0.00 0.00 0.00 78 1016.0
20260506171557 15 0 0.0 0.0 0.00 0.00 0.00 80 1016.0
20260506170053 15 0 0.0 4.8 0.00 0.00 0.00 80 1016.0
20260506164551 15 0 0.0 3.2 0.00 0.00 0.00 81 1015.9
20260506163049 14 0 0.0 4.8 0.00 0.00 0.00 83 1015.9
20260506161549 14 0 0.0 1.6 0.00 0.00 0.00 84 1015.7
20260506154551 13 136 0.0 3.2 0.00 0.00 0.00 86 1015.5
20260506153049 13 119 1.6 11.3 0.00 0.00 0.00 88 1015.5
20260506151550 12 0 0.0 4.8 0.00 0.00 0.00 90 1015.4
20260506150054 12 0 0.0 0.0 0.00 0.00 0.00 92 1015.3
20260506144601 11 0 0.0 0.0 0.00 0.00 0.00 93 1015.4
20260506143047 11 0 0.0 0.0 0.00 0.00 0.00 93 1015.4
20260506141547 11 0 0.0 0.0 0.00 0.00 0.00 94 1015.3
20260506140050 10 0 0.0 0.0 0.00 0.00 0.00 94 1014.9
20260506134546 10 0 0.0 0.0 0.00 0.00 0.00 94 1014.7
20260506133050 10 0 0.0 0.0 0.00 0.00 0.00 94 1014.5
20260506131557 -17 0.0 0.0 0.00 0.00 0.00 1014.4
20260506130049 -17 0.0 0.0 0.00 0.00 0.00 1014.3
20260506124547 -17 0.0 0.0 0.00 0.00 0.00 1014.3
20260506123051 -17 0.0 0.0 0.00 0.00 0.00 1014.4
20260506121542 -17 0.0 0.0 0.00 0.00 0.00 1014.4
20260506120052 -17 0.0 0.0 0.00 0.00 0.00 1014.1
20260506114552 -17 0.0 0.0 0.00 0.00 0.00 1014.0
20260506113045 -17 0.0 0.0 0.00 0.00 0.00 1014.1
20260506111547 7 0.0 0.0 0.00 0.00 0.00 92 1014.1
20260506110042 7 0 0.0 0.0 0.00 0.00 0.00 93 1013.9
20260506104551 7 0 0.0 0.0 0.00 0.00 0.00 93 1013.7
20260506103052 7 0 0.0 0.0 0.00 0.00 0.00 92 1013.6